User: anonymous   Login
Location: Caltech
(34.1382°N, 118.1253°W)
Time: 09:05:57
(UTC-07:00)
Language:

PAYLOAD A - Orbit

View from above orbital plane
View from above orbital plane
View from above satellite
View from above satellite

Ground track
Ground track

The orbit data is extracted from the following two-line orbital elements,

1 27840U 03031A   15088.19724632  .00000190  00000-0  71752-4 0  9990
2 27840 098.2135 110.0706 0099269 044.3895 025.6501 14.38787883616698
Epoch (UTC): 29 March 2015 04:44:02
Eccentricity: 0.0099269
inclination: 98.2135°
perigee height: 691 km
apogee height: 833 km
right ascension of ascending node: 110.0706°
argument of perigee: 44.3895°
revolutions per day: 14.38787883
mean anomaly at epoch: 25.6501°
orbit number at epoch: 61669

The dashed part of the orbit path shows where the satellite is in the earth's shadow,  

DLR